Time,TemperatureF,DewpointF,PressureIn,WindDirection,WindDirectionDegrees,WindSpeedMPH,WindSpeedGustMPH,Humidity,HourlyPrecipIn,Conditions,Clouds,dailyrainin,SoftwareType,DateUTC
2013-04-30 00:01:00,60.0,56.4,29.85,SSE,163,0.0,6.0,88,0.00,,CLR,0.00,VWS V14.01,2013-04-30 05:01:00,
2013-04-30 00:06:00,59.9,56.3,29.85,SSE,163,1.5,6.0,88,0.00,,CLR,0.00,VWS V14.01,2013-04-30 05:06:00,
2013-04-30 00:11:00,59.9,56.3,29.85,SSE,163,0.0,9.0,88,0.00,,CLR,0.00,VWS V14.01,2013-04-30 05:11:00,
2013-04-30 00:16:00,59.9,56.3,29.85,SSE,163,0.0,9.0,88,0.00,,CLR,0.00,VWS V14.01,2013-04-30 05:16:00,
2013-04-30 00:21:00,59.9,56.3,29.85,SSE,163,0.0,9.0,88,0.00,,CLR,0.00,VWS V14.01,2013-04-30 05:21:00,
2013-04-30 00:26:00,59.9,56.3,29.85,SSE,163,0.0,9.0,88,0.00,,CLR,0.00,VWS V14.01,2013-04-30 05:26:00,
2013-04-30 00:31:00,60.0,56.4,29.85,SSE,163,1.5,6.0,88,0.00,,CLR,0.00,VWS V14.01,2013-04-30 05:31:00,
2013-04-30 00:36:00,60.0,56.4,29.85,SSE,163,0.0,6.0,88,0.00,,CLR,0.00,VWS V14.01,2013-04-30 05:36:00,
2013-04-30 00:41:00,60.0,56.4,29.85,SSE,163,1.5,7.5,88,0.00,,CLR,0.00,VWS V14.01,2013-04-30 05:41:00,
2013-04-30 00:46:00,60.1,56.5,29.85,SSE,163,0.0,7.5,88,0.00,,CLR,0.00,VWS V14.01,2013-04-30 05:46:00,
2013-04-30 00:51:00,60.1,56.5,29.85,SSE,163,1.5,9.0,88,0.00,,CLR,0.00,VWS V14.01,2013-04-30 05:51:00,
2013-04-30 00:56:00,60.1,56.5,29.85,SSE,163,0.0,9.0,88,0.00,,CLR,0.00,VWS V14.01,2013-04-30 05:56:00,
2013-04-30 01:01:00,60.2,56.6,29.85,SSE,163,0.0,6.0,88,0.00,,CLR,0.00,VWS V14.01,2013-04-30 06:01:00,
2013-04-30 01:06:00,60.2,56.6,29.85,SSE,163,0.0,7.5,88,0.00,,CLR,0.00,VWS V14.01,2013-04-30 06:06:00,
2013-04-30 01:11:00,60.3,56.4,29.85,SSE,163,1.5,9.0,87,0.00,,CLR,0.00,VWS V14.01,2013-04-30 06:11:00,
2013-04-30 01:16:00,60.3,56.4,29.85,SSE,163,3.0,9.0,87,0.00,,CLR,0.00,VWS V14.01,2013-04-30 06:16:00,
2013-04-30 01:21:00,60.4,56.5,29.85,SSE,165,1.5,10.5,87,0.00,,CLR,0.00,VWS V14.01,2013-04-30 06:21:00,
2013-04-30 01:27:00,60.5,56.6,29.85,SSE,166,6.0,10.5,87,0.00,,CLR,0.00,VWS V14.01,2013-04-30 06:27:00,
2013-04-30 01:32:00,60.5,56.6,29.85,SSE,168,1.5,7.5,87,0.00,,CLR,0.00,VWS V14.01,2013-04-30 06:32:00,
2013-04-30 01:37:00,60.6,56.7,29.85,SSE,167,0.0,9.0,87,0.00,,CLR,0.00,VWS V14.01,2013-04-30 06:37:00,
2013-04-30 01:42:00,60.6,56.7,29.85,SSE,168,3.0,9.0,87,0.00,,CLR,0.00,VWS V14.01,2013-04-30 06:42:00,
2013-04-30 01:47:00,60.6,56.4,29.85,South,169,3.0,10.5,86,0.00,,CLR,0.00,VWS V14.01,2013-04-30 06:47:00,
2013-04-30 01:52:00,60.7,56.5,29.85,South,169,1.5,10.5,86,0.00,,CLR,0.00,VWS V14.01,2013-04-30 06:52:00,
2013-04-30 01:57:00,60.6,56.4,29.84,South,169,3.0,10.5,86,0.00,,CLR,0.00,VWS V14.01,2013-04-30 06:57:00,
2013-04-30 02:02:00,60.6,56.4,29.84,South,169,7.5,7.5,86,0.00,,CLR,0.00,VWS V14.01,2013-04-30 07:02:00,
2013-04-30 02:07:00,60.6,56.4,29.84,South,169,0.0,7.5,86,0.00,,CLR,0.00,VWS V14.01,2013-04-30 07:07:00,
2013-04-30 02:12:00,60.6,56.4,29.84,SSE,167,0.0,9.0,86,0.00,,CLR,0.00,VWS V14.01,2013-04-30 07:12:00,
2013-04-30 02:17:00,60.6,56.4,29.84,SSE,166,0.0,9.0,86,0.00,,CLR,0.00,VWS V14.01,2013-04-30 07:17:00,
2013-04-30 02:22:00,60.6,56.4,29.84,SSE,166,3.0,9.0,86,0.00,,CLR,0.00,VWS V14.01,2013-04-30 07:22:00,
2013-04-30 02:27:00,60.6,56.4,29.84,SSE,166,0.0,9.0,86,0.00,,CLR,0.00,VWS V14.01,2013-04-30 07:27:00,
2013-04-30 02:32:00,60.5,56.3,29.85,SSE,166,0.0,6.0,86,0.00,,CLR,0.00,VWS V14.01,2013-04-30 07:32:00,
2013-04-30 02:37:00,60.4,56.2,29.84,SSE,166,0.0,6.0,86,0.00,,CLR,0.00,VWS V14.01,2013-04-30 07:37:00,
2013-04-30 02:42:00,60.4,56.2,29.85,SSE,166,0.0,6.0,86,0.00,,CLR,0.00,VWS V14.01,2013-04-30 07:42:00,
2013-04-30 02:47:00,60.3,56.1,29.84,SSE,166,1.5,6.0,86,0.00,,CLR,0.00,VWS V14.01,2013-04-30 07:47:00,
2013-04-30 02:52:00,60.2,56.0,29.84,SSE,166,0.0,6.0,86,0.00,,CLR,0.00,VWS V14.01,2013-04-30 07:52:00,
2013-04-30 02:57:00,60.1,55.9,29.84,SSE,166,0.0,6.0,86,0.00,,CLR,0.00,VWS V14.01,2013-04-30 07:57:00,
2013-04-30 03:02:00,60.0,55.8,29.84,SSE,166,0.0,3.0,86,0.00,,CLR,0.00,VWS V14.01,2013-04-30 08:02:00,
2013-04-30 03:07:00,60.0,55.8,29.84,SSE,166,0.0,6.0,86,0.00,,CLR,0.00,VWS V14.01,2013-04-30 08:07:00,
2013-04-30 03:12:00,59.8,55.6,29.84,SSE,166,0.0,6.0,86,0.00,,CLR,0.00,VWS V14.01,2013-04-30 08:12:00,
2013-04-30 03:17:00,59.7,55.8,29.84,SSE,166,0.0,6.0,87,0.00,,CLR,0.00,VWS V14.01,2013-04-30 08:17:00,
2013-04-30 03:22:00,59.6,55.7,29.84,SSE,166,0.0,6.0,87,0.00,,CLR,0.00,VWS V14.01,2013-04-30 08:22:00,
2013-04-30 03:27:00,59.5,55.6,29.85,SSE,166,1.5,6.0,87,0.00,,CLR,0.00,VWS V14.01,2013-04-30 08:27:00,
2013-04-30 03:32:00,59.4,55.5,29.84,SSE,166,0.0,1.5,87,0.00,,CLR,0.00,VWS V14.01,2013-04-30 08:32:00,
2013-04-30 03:37:00,59.3,55.4,29.84,SSE,166,0.0,3.0,87,0.00,,CLR,0.00,VWS V14.01,2013-04-30 08:37:00,
2013-04-30 03:42:00,59.1,55.2,29.84,SSE,166,0.0,6.0,87,0.00,,CLR,0.00,VWS V14.01,2013-04-30 08:42:00,
2013-04-30 03:47:00,59.0,55.1,29.84,SSE,166,0.0,6.0,87,0.00,,CLR,0.00,VWS V14.01,2013-04-30 08:47:00,
2013-04-30 03:52:00,58.8,55.3,29.84,SSE,166,0.0,6.0,88,0.00,,CLR,0.00,VWS V14.01,2013-04-30 08:52:00,
2013-04-30 03:58:00,58.7,55.2,29.84,SSE,166,0.0,6.0,88,0.00,,CLR,0.00,VWS V14.01,2013-04-30 08:58:00,
2013-04-30 04:03:00,58.6,55.1,29.84,SSE,166,3.0,7.5,88,0.00,,CLR,0.00,VWS V14.01,2013-04-30 09:03:00,
2013-04-30 04:08:00,58.4,54.9,29.84,SSE,166,0.0,7.5,88,0.00,,CLR,0.00,VWS V14.01,2013-04-30 09:08:00,
2013-04-30 04:13:00,58.4,55.2,29.84,SSE,166,0.0,7.5,89,0.00,,CLR,0.00,VWS V14.01,2013-04-30 09:13:00,
2013-04-30 04:18:00,58.3,55.1,29.85,SSE,166,0.0,7.5,89,0.00,,CLR,0.00,VWS V14.01,2013-04-30 09:18:00,
2013-04-30 04:23:00,58.2,55.0,29.84,SSE,166,0.0,7.5,89,0.00,,CLR,0.00,VWS V14.01,2013-04-30 09:23:00,
2013-04-30 04:28:00,58.2,55.0,29.85,SSE,166,0.0,7.5,89,0.00,,CLR,0.00,VWS V14.01,2013-04-30 09:28:00,
2013-04-30 04:33:00,58.1,54.9,29.85,SSE,166,3.0,6.0,89,0.00,,CLR,0.00,VWS V14.01,2013-04-30 09:33:00,
2013-04-30 04:38:00,58.0,54.8,29.85,SSE,166,0.0,6.0,89,0.00,,CLR,0.00,VWS V14.01,2013-04-30 09:38:00,
2013-04-30 04:43:00,58.0,54.8,29.85,SSE,166,3.0,6.0,89,0.00,,CLR,0.00,VWS V14.01,2013-04-30 09:43:00,
2013-04-30 04:48:00,58.0,54.8,29.86,SSE,166,1.5,6.0,89,0.00,,CLR,0.00,VWS V14.01,2013-04-30 09:48:00,
2013-04-30 04:53:00,58.0,54.8,29.85,SSE,166,0.0,6.0,89,0.00,,CLR,0.00,VWS V14.01,2013-04-30 09:53:00,
2013-04-30 04:58:00,57.9,54.7,29.86,SSE,166,1.5,6.0,89,0.00,,CLR,0.00,VWS V14.01,2013-04-30 09:58:00,
2013-04-30 05:03:00,57.9,54.7,29.86,SSE,166,0.0,7.5,89,0.00,,CLR,0.00,VWS V14.01,2013-04-30 10:03:00,
2013-04-30 05:08:00,57.9,54.7,29.86,SSE,166,0.0,7.5,89,0.00,,CLR,0.00,VWS V14.01,2013-04-30 10:08:00,
2013-04-30 05:13:00,57.9,54.7,29.86,SSE,166,0.0,7.5,89,0.00,,CLR,0.00,VWS V14.01,2013-04-30 10:13:00,
2013-04-30 05:18:00,57.9,54.7,29.86,SSE,166,0.0,7.5,89,0.00,,CLR,0.00,VWS V14.01,2013-04-30 10:18:00,
2013-04-30 05:23:00,57.9,54.7,29.86,SSE,166,0.0,7.5,89,0.00,,CLR,0.00,VWS V14.01,2013-04-30 10:23:00,
2013-04-30 05:28:00,57.9,54.7,29.86,SSE,166,0.0,7.5,89,0.00,,CLR,0.00,VWS V14.01,2013-04-30 10:28:00,
2013-04-30 05:33:00,57.8,54.6,29.86,SSE,166,0.0,1.5,89,0.00,,CLR,0.00,VWS V14.01,2013-04-30 10:33:00,
2013-04-30 05:38:00,57.8,54.6,29.86,SSE,166,0.0,1.5,89,0.00,,CLR,0.00,VWS V14.01,2013-04-30 10:38:00,
2013-04-30 05:43:00,57.8,54.6,29.86,SSE,166,0.0,3.0,89,0.00,,CLR,0.00,VWS V14.01,2013-04-30 10:43:00,
2013-04-30 05:48:00,57.7,54.5,29.86,SSE,166,0.0,3.0,89,0.00,,CLR,0.00,VWS V14.01,2013-04-30 10:48:00,
2013-04-30 05:53:00,57.7,54.5,29.87,SSE,166,0.0,3.0,89,0.00,,CLR,0.00,VWS V14.01,2013-04-30 10:53:00,
2013-04-30 05:58:00,57.6,54.4,29.87,SSE,166,0.0,3.0,89,0.00,,CLR,0.00,VWS V14.01,2013-04-30 10:58:00,
2013-04-30 06:03:00,57.5,55.2,29.87,SSE,166,0.0,0.0,92,0.00,,CLR,0.00,VWS V14.01,2013-04-30 11:03:00,
2013-04-30 06:08:00,57.5,54.3,29.87,SSE,166,0.0,1.5,89,0.00,,CLR,0.00,VWS V14.01,2013-04-30 11:08:00,
2013-04-30 06:13:00,57.4,54.2,29.87,SSE,166,0.0,1.5,89,0.00,,CLR,0.00,VWS V14.01,2013-04-30 11:13:00,
2013-04-30 06:18:00,57.3,54.1,29.87,SSE,166,0.0,1.5,89,0.00,,CLR,0.00,VWS V14.01,2013-04-30 11:18:00,
2013-04-30 06:23:00,57.1,54.2,29.88,SSE,166,0.0,1.5,90,0.00,,CLR,0.00,VWS V14.01,2013-04-30 11:23:00,
2013-04-30 06:28:00,57.1,54.2,29.88,SSE,166,0.0,1.5,90,0.00,,CLR,0.00,VWS V14.01,2013-04-30 11:28:00,
2013-04-30 06:33:00,57.0,54.1,29.88,SSE,166,0.0,6.0,90,0.00,,CLR,0.00,VWS V14.01,2013-04-30 11:33:00,
2013-04-30 06:38:00,57.0,54.1,29.88,SSE,166,0.0,6.0,90,0.00,,CLR,0.00,VWS V14.01,2013-04-30 11:38:00,
2013-04-30 06:43:00,56.9,54.0,29.88,SSE,166,0.0,6.0,90,0.00,,CLR,0.00,VWS V14.01,2013-04-30 11:43:00,
2013-04-30 06:48:00,57.0,54.4,29.88,SSE,166,0.0,6.0,91,0.00,,CLR,0.00,VWS V14.01,2013-04-30 11:48:00,
2013-04-30 06:53:00,57.1,54.5,29.89,SSE,166,3.0,7.5,91,0.00,,CLR,0.00,VWS V14.01,2013-04-30 11:53:00,
2013-04-30 06:59:00,57.3,54.7,29.89,SSE,166,6.0,7.5,91,0.00,,CLR,0.00,VWS V14.01,2013-04-30 11:59:00,
2013-04-30 07:04:00,57.5,54.9,29.89,SSE,165,6.0,7.5,91,0.00,,SKC,0.00,VWS V14.01,2013-04-30 12:04:00,
2013-04-30 07:09:00,57.7,55.1,29.89,SSE,166,3.0,7.5,91,0.00,,SKC,0.00,VWS V14.01,2013-04-30 12:09:00,
2013-04-30 07:14:00,58.0,55.4,29.89,South,171,6.0,9.0,91,0.00,,SKC,0.00,VWS V14.01,2013-04-30 12:14:00,
2013-04-30 07:19:00,58.4,55.5,29.89,South,171,0.0,9.0,90,0.00,,SKC,0.00,VWS V14.01,2013-04-30 12:19:00,
2013-04-30 07:24:00,58.6,55.7,29.90,South,171,7.5,9.0,90,0.00,,SKC,0.00,VWS V14.01,2013-04-30 12:24:00,
2013-04-30 07:29:00,59.0,56.1,29.90,SSE,159,1.5,10.5,90,0.00,,SKC,0.00,VWS V14.01,2013-04-30 12:29:00,
2013-04-30 07:34:00,59.3,56.1,29.90,South,170,1.5,9.0,89,0.00,,SKC,0.00,VWS V14.01,2013-04-30 12:34:00,
2013-04-30 07:39:00,59.7,56.2,29.90,South,173,6.0,10.5,88,0.00,,SKC,0.00,VWS V14.01,2013-04-30 12:39:00,
2013-04-30 07:44:00,60.0,56.4,29.90,South,171,7.5,10.5,88,0.00,,SKC,0.00,VWS V14.01,2013-04-30 12:44:00,
2013-04-30 07:49:00,60.5,56.6,29.91,South,173,6.0,10.5,87,0.00,,SKC,0.00,VWS V14.01,2013-04-30 12:49:00,
2013-04-30 07:54:00,60.9,56.7,29.91,SSE,167,0.0,10.5,86,0.00,,SKC,0.00,VWS V14.01,2013-04-30 12:54:00,
2013-04-30 07:59:00,61.3,56.8,29.91,SSE,167,0.0,10.5,85,0.00,,SKC,0.00,VWS V14.01,2013-04-30 12:59:00,
2013-04-30 08:04:00,61.7,56.8,29.92,South,169,7.5,9.0,84,0.00,,SKC,0.00,VWS V14.01,2013-04-30 13:04:00,
2013-04-30 08:09:00,62.0,57.1,29.92,South,171,1.5,9.0,84,0.00,,SKC,0.00,VWS V14.01,2013-04-30 13:09:00,
2013-04-30 08:14:00,62.5,57.3,29.91,South,174,9.0,10.5,83,0.00,,SKC,0.00,VWS V14.01,2013-04-30 13:14:00,
2013-04-30 08:19:00,63.0,57.4,29.92,South,177,7.5,12.0,82,0.00,,SKC,0.00,VWS V14.01,2013-04-30 13:19:00,
2013-04-30 08:24:00,63.5,57.9,29.92,South,173,7.5,12.0,82,0.00,,SKC,0.00,VWS V14.01,2013-04-30 13:24:00,
2013-04-30 08:29:00,63.9,57.6,29.92,South,172,3.0,6.0,80,0.00,,SKC,0.00,VWS V14.01,2013-04-30 13:29:00,
2013-04-30 08:34:00,64.3,57.7,29.92,South,186,9.0,13.5,79,0.00,,SKC,0.00,VWS V14.01,2013-04-30 13:34:00,
2013-04-30 08:39:00,64.8,58.1,29.92,SSE,167,6.0,13.5,79,0.00,,SKC,0.00,VWS V14.01,2013-04-30 13:39:00,
2013-04-30 08:44:00,65.2,58.2,29.92,South,172,6.0,13.5,78,0.00,,SKC,0.00,VWS V14.01,2013-04-30 13:44:00,
2013-04-30 08:49:00,65.6,58.2,29.92,South,174,0.0,13.5,77,0.00,,SKC,0.00,VWS V14.01,2013-04-30 13:49:00,
2013-04-30 08:54:00,66.1,58.3,29.92,SSE,166,9.0,13.5,76,0.00,,SKC,0.00,VWS V14.01,2013-04-30 13:54:00,
2013-04-30 08:59:00,66.6,58.4,29.92,SW,224,9.0,9.0,75,0.00,,SKC,0.00,VWS V14.01,2013-04-30 13:59:00,
2013-04-30 09:04:00,67.0,58.8,29.92,South,176,7.5,10.5,75,0.00,,SKC,0.00,VWS V14.01,2013-04-30 14:04:00,
2013-04-30 09:09:00,67.5,58.9,29.92,SSE,166,6.0,12.0,74,0.00,,SKC,0.00,VWS V14.01,2013-04-30 14:09:00,
2013-04-30 09:14:00,68.0,59.0,29.92,South,171,7.5,13.5,73,0.00,,SKC,0.00,VWS V14.01,2013-04-30 14:14:00,
2013-04-30 09:19:00,68.4,58.6,29.92,South,175,9.0,15.0,71,0.00,,SKC,0.00,VWS V14.01,2013-04-30 14:19:00,
2013-04-30 09:24:00,68.8,59.4,29.92,SSW,196,9.0,16.5,72,0.00,,SKC,0.00,VWS V14.01,2013-04-30 14:24:00,
2013-04-30 09:29:00,69.5,59.7,29.92,SSE,161,1.5,3.0,71,0.00,,SKC,0.00,VWS V14.01,2013-04-30 14:29:00,
2013-04-30 09:34:00,69.9,59.3,29.92,SSE,165,3.0,10.5,69,0.00,,SKC,0.00,VWS V14.01,2013-04-30 14:34:00,
2013-04-30 09:39:00,70.3,59.2,29.92,SW,228,15.0,15.0,68,0.00,,SKC,0.00,VWS V14.01,2013-04-30 14:39:00,
2013-04-30 09:44:00,70.8,59.3,29.92,WSW,239,6.0,15.0,67,0.00,,SKC,0.00,VWS V14.01,2013-04-30 14:44:00,
2013-04-30 09:49:00,71.3,59.4,29.92,South,191,7.5,15.0,66,0.00,,SKC,0.00,VWS V14.01,2013-04-30 14:49:00,
2013-04-30 09:54:00,71.6,58.8,29.92,SSW,212,7.5,16.5,64,0.00,,SKC,0.00,VWS V14.01,2013-04-30 14:54:00,
2013-04-30 09:59:00,72.0,58.3,29.92,South,187,6.0,9.0,62,0.00,,FEW250,0.00,VWS V14.01,2013-04-30 14:59:00,
2013-04-30 10:04:00,72.4,60.4,29.92,SSW,213,3.0,9.0,66,0.00,,FEW250,0.00,VWS V14.01,2013-04-30 15:04:00,
2013-04-30 10:09:00,72.7,58.9,29.92,South,182,10.5,15.0,62,0.00,,FEW250,0.00,VWS V14.01,2013-04-30 15:09:00,
2013-04-30 10:14:00,73.1,58.9,29.92,South,182,10.5,15.0,61,0.00,,FEW250,0.00,VWS V14.01,2013-04-30 15:14:00,
2013-04-30 10:20:00,73.6,58.9,29.92,SSW,198,1.5,15.0,60,0.00,,FEW250,0.00,VWS V14.01,2013-04-30 15:20:00,
2013-04-30 10:25:00,73.9,58.7,29.92,SW,231,10.5,15.0,59,0.00,,FEW250,0.00,VWS V14.01,2013-04-30 15:25:00,
2013-04-30 10:30:00,74.3,60.0,29.91,South,178,7.5,12.0,61,0.00,,FEW250,0.00,VWS V14.01,2013-04-30 15:30:00,
2013-04-30 10:35:00,74.7,59.0,29.92,South,172,9.0,12.0,58,0.00,,FEW250,0.00,VWS V14.01,2013-04-30 15:35:00,
2013-04-30 10:40:00,74.9,58.2,29.92,SSW,194,10.5,16.5,56,0.00,,FEW250,0.00,VWS V14.01,2013-04-30 15:40:00,
2013-04-30 10:45:00,75.0,58.8,29.92,SSW,212,3.0,18.0,57,0.00,,FEW250,0.00,VWS V14.01,2013-04-30 15:45:00,
2013-04-30 10:50:00,75.3,60.0,29.92,SSW,194,4.5,18.0,59,0.00,,FEW250,0.00,VWS V14.01,2013-04-30 15:50:00,
2013-04-30 10:55:00,75.7,59.4,29.91,SSW,200,7.5,18.0,57,0.00,,FEW250,0.00,VWS V14.01,2013-04-30 15:55:00,
2013-04-30 11:00:00,76.0,60.2,29.92,South,169,9.0,12.0,58,0.00,,FEW250,0.00,VWS V14.01,2013-04-30 16:00:00,
2013-04-30 11:05:00,76.1,59.3,29.92,South,182,10.5,15.0,56,0.00,,SCT250,0.00,VWS V14.01,2013-04-30 16:05:00,
2013-04-30 11:10:00,76.2,60.4,29.92,SSW,209,3.0,15.0,58,0.00,,SCT250,0.00,VWS V14.01,2013-04-30 16:10:00,
2013-04-30 11:15:00,76.5,60.2,29.92,SSE,154,12.0,16.5,57,0.00,,SCT250,0.00,VWS V14.01,2013-04-30 16:15:00,
2013-04-30 11:20:00,76.6,59.8,29.92,South,190,12.0,16.5,56,0.00,,SCT250,0.00,VWS V14.01,2013-04-30 16:20:00,
2013-04-30 11:25:00,76.8,59.9,29.92,South,179,10.5,16.5,56,0.00,,SCT250,0.00,VWS V14.01,2013-04-30 16:25:00,
2013-04-30 11:30:00,77.1,59.7,29.92,SSE,167,6.0,7.5,55,0.00,,SCT250,0.00,VWS V14.01,2013-04-30 16:30:00,
2013-04-30 11:35:00,77.4,60.0,29.91,South,173,7.5,12.0,55,0.00,,SCT250,0.00,VWS V14.01,2013-04-30 16:35:00,
2013-04-30 11:40:00,77.6,60.2,29.91,SSE,165,9.0,16.5,55,0.00,,SCT250,0.00,VWS V14.01,2013-04-30 16:40:00,
2013-04-30 11:45:00,77.7,59.8,29.91,South,169,9.0,16.5,54,0.00,,SCT250,0.00,VWS V14.01,2013-04-30 16:45:00,
2013-04-30 11:50:00,77.8,59.8,29.91,SSE,153,9.0,16.5,54,0.00,,SCT250,0.00,VWS V14.01,2013-04-30 16:50:00,
2013-04-30 11:55:00,78.2,60.7,29.91,South,173,10.5,16.5,55,0.00,,SCT250,0.00,VWS V14.01,2013-04-30 16:55:00,
2013-04-30 12:00:00,78.4,59.9,29.91,South,174,9.0,9.0,53,0.00,,SCT250,0.00,VWS V14.01,2013-04-30 17:00:00,
2013-04-30 12:05:00,78.7,60.2,29.91,South,176,9.0,13.5,53,0.00,,SCT250,0.00,VWS V14.01,2013-04-30 17:05:00,
2013-04-30 12:10:00,79.0,59.9,29.90,SSE,163,6.0,15.0,52,0.00,,SCT250,0.00,VWS V14.01,2013-04-30 17:10:00,
2013-04-30 12:15:00,79.3,60.7,29.90,South,183,4.5,15.0,53,0.00,,SCT250,0.00,VWS V14.01,2013-04-30 17:15:00,
2013-04-30 12:20:00,79.6,59.9,29.90,South,175,9.0,15.0,51,0.00,,SCT250,0.00,VWS V14.01,2013-04-30 17:20:00,
2013-04-30 12:25:00,79.9,60.7,29.89,South,179,13.5,15.0,52,0.00,,SCT250,0.00,VWS V14.01,2013-04-30 17:25:00,
2013-04-30 12:30:00,80.1,59.8,29.89,SSE,157,13.5,13.5,50,0.00,,SCT250,0.00,VWS V14.01,2013-04-30 17:30:00,
2013-04-30 12:36:00,80.2,59.9,29.89,South,171,9.0,13.5,50,0.00,,SCT250,0.00,VWS V14.01,2013-04-30 17:36:00,
2013-04-30 12:41:00,80.4,60.1,29.89,SSE,166,7.5,15.0,50,0.00,,SCT250,0.00,VWS V14.01,2013-04-30 17:41:00,
2013-04-30 12:46:00,80.6,60.8,29.89,SSE,165,9.0,15.0,51,0.00,,SCT250,0.00,VWS V14.01,2013-04-30 17:46:00,
2013-04-30 12:51:00,80.7,59.8,29.89,South,170,9.0,15.0,49,0.00,,SCT250,0.00,VWS V14.01,2013-04-30 17:51:00,
2013-04-30 12:56:00,80.8,60.4,29.89,SSE,165,10.5,15.0,50,0.00,,SCT250,0.00,VWS V14.01,2013-04-30 17:56:00,
2013-04-30 13:01:00,80.8,59.9,29.88,SSE,167,9.0,15.0,49,0.00,,SCT250,0.00,VWS V14.01,2013-04-30 18:01:00,
2013-04-30 13:06:00,80.8,59.9,29.88,SSE,168,9.0,15.0,49,0.00,,SCT250,0.00,VWS V14.01,2013-04-30 18:06:00,
2013-04-30 13:11:00,81.0,60.6,29.88,SSE,166,7.5,15.0,50,0.00,,SKC,0.00,VWS V14.01,2013-04-30 18:11:00,
2013-04-30 13:16:00,81.4,61.5,29.88,SSE,166,18.0,18.0,51,0.00,,SKC,0.00,VWS V14.01,2013-04-30 18:16:00,
2013-04-30 13:21:00,81.7,60.1,29.88,South,171,12.0,18.0,48,0.00,,SKC,0.00,VWS V14.01,2013-04-30 18:21:00,
2013-04-30 13:26:00,81.8,60.2,29.88,South,171,10.5,18.0,48,0.00,,SKC,0.00,VWS V14.01,2013-04-30 18:26:00,
2013-04-30 13:31:00,81.8,60.8,29.88,South,175,7.5,16.5,49,0.00,,SKC,0.00,VWS V14.01,2013-04-30 18:31:00,
2013-04-30 13:36:00,82.0,61.5,29.87,South,171,6.0,16.5,50,0.00,,SKC,0.00,VWS V14.01,2013-04-30 18:36:00,
2013-04-30 13:41:00,82.3,60.1,29.87,SSE,151,10.5,16.5,47,0.00,,SKC,0.00,VWS V14.01,2013-04-30 18:41:00,
2013-04-30 13:46:00,82.3,60.1,29.87,South,174,9.0,16.5,47,0.00,,SKC,0.00,VWS V14.01,2013-04-30 18:46:00,
2013-04-30 13:51:00,82.5,61.4,29.87,South,178,1.5,16.5,49,0.00,,SKC,0.00,VWS V14.01,2013-04-30 18:51:00,
2013-04-30 13:56:00,82.9,60.6,29.88,South,181,7.5,16.5,47,0.00,,SKC,0.00,VWS V14.01,2013-04-30 18:56:00,
2013-04-30 14:01:00,83.1,60.2,29.88,South,171,6.0,13.5,46,0.00,,SKC,0.00,VWS V14.01,2013-04-30 19:01:00,
2013-04-30 14:06:00,83.3,61.0,29.87,SSW,193,9.0,13.5,47,0.00,,FEW070,0.00,VWS V14.01,2013-04-30 19:06:00,
2013-04-30 14:11:00,83.6,59.4,29.87,South,169,7.5,15.0,44,0.00,,FEW070,0.00,VWS V14.01,2013-04-30 19:11:00,
2013-04-30 14:16:00,83.7,62.0,29.88,South,174,0.0,15.0,48,0.00,,FEW070,0.00,VWS V14.01,2013-04-30 19:16:00,
2013-04-30 14:21:00,84.0,60.4,29.88,South,188,6.0,16.5,45,0.00,,FEW070,0.00,VWS V14.01,2013-04-30 19:21:00,
2013-04-30 14:26:00,83.9,60.3,29.88,SW,214,1.5,16.5,45,0.00,,FEW070,0.00,VWS V14.01,2013-04-30 19:26:00,
2013-04-30 14:31:00,83.4,61.1,29.88,South,181,10.5,15.0,47,0.00,,FEW070,0.00,VWS V14.01,2013-04-30 19:31:00,
2013-04-30 14:36:00,83.4,60.5,29.88,South,171,9.0,15.0,46,0.00,,FEW070,0.00,VWS V14.01,2013-04-30 19:36:00,
2013-04-30 14:41:00,83.6,60.0,29.88,SE,129,0.0,15.0,45,0.00,,FEW070,0.00,VWS V14.01,2013-04-30 19:41:00,
2013-04-30 14:47:00,83.5,59.9,29.88,SSW,213,4.5,15.0,45,0.00,,FEW070,0.00,VWS V14.01,2013-04-30 19:47:00,
2013-04-30 14:52:00,83.3,61.6,29.88,SW,215,4.5,15.0,48,0.00,,FEW070,0.00,VWS V14.01,2013-04-30 19:52:00,
2013-04-30 14:57:00,83.6,61.8,29.88,SSE,159,1.5,15.0,48,0.00,,FEW070,0.00,VWS V14.01,2013-04-30 19:57:00,
2013-04-30 15:02:00,84.2,61.2,29.88,SSE,150,0.0,9.0,46,0.00,,FEW070,0.00,VWS V14.01,2013-04-30 20:02:00,
2013-04-30 15:07:00,84.7,60.4,29.88,SSE,163,7.5,12.0,44,0.00,,SCT060,0.00,VWS V14.01,2013-04-30 20:07:00,
2013-04-30 15:12:00,84.6,60.9,29.88,South,190,10.5,15.0,45,0.00,,SCT060,0.00,VWS V14.01,2013-04-30 20:12:00,
2013-04-30 15:17:00,84.6,59.7,29.88,SW,215,10.5,15.0,43,0.00,,SCT060,0.00,VWS V14.01,2013-04-30 20:17:00,
2013-04-30 15:22:00,83.8,58.9,29.88,South,173,7.5,18.0,43,0.00,,SCT060,0.00,VWS V14.01,2013-04-30 20:22:00,
2013-04-30 15:27:00,83.7,58.8,29.88,SE,146,10.5,18.0,43,0.00,,SCT060,0.00,VWS V14.01,2013-04-30 20:27:00,
2013-04-30 15:32:00,83.8,58.9,29.87,South,184,12.0,16.5,43,0.00,,SCT060,0.00,VWS V14.01,2013-04-30 20:32:00,
2013-04-30 15:37:00,83.8,60.2,29.87,South,184,4.5,16.5,45,0.00,,SCT060,0.00,VWS V14.01,2013-04-30 20:37:00,
2013-04-30 15:42:00,83.7,60.1,29.87,South,172,10.5,19.5,45,0.00,,SCT060,0.00,VWS V14.01,2013-04-30 20:42:00,
2013-04-30 15:47:00,83.6,59.4,29.88,SSE,158,13.5,19.5,44,0.00,,SCT060,0.00,VWS V14.01,2013-04-30 20:47:00,
2013-04-30 15:52:00,83.2,59.0,29.88,SW,215,9.0,19.5,44,0.00,,SCT060,0.00,VWS V14.01,2013-04-30 20:52:00,
2013-04-30 15:57:00,82.5,58.4,29.88,SSW,202,7.5,19.5,44,0.00,,SCT060,0.00,VWS V14.01,2013-04-30 20:57:00,
2013-04-30 16:02:00,82.2,60.0,29.88,SSW,192,9.0,13.5,47,0.00,,SCT060,0.00,VWS V14.01,2013-04-30 21:02:00,
2013-04-30 16:07:00,82.4,59.6,29.88,SSE,153,9.0,16.5,46,0.00,,SCT060,0.00,VWS V14.01,2013-04-30 21:07:00,
2013-04-30 16:12:00,82.6,60.9,29.88,SSE,161,6.0,16.5,48,0.00,,SCT060,0.00,VWS V14.01,2013-04-30 21:12:00,
2013-04-30 16:17:00,82.9,60.0,29.88,South,170,9.0,18.0,46,0.00,,SCT060,0.00,VWS V14.01,2013-04-30 21:17:00,
2013-04-30 16:22:00,83.2,59.7,29.88,South,184,15.0,19.5,45,0.00,,SCT060,0.00,VWS V14.01,2013-04-30 21:22:00,
2013-04-30 16:27:00,83.4,59.8,29.87,SSE,168,7.5,19.5,45,0.00,,SCT060,0.00,VWS V14.01,2013-04-30 21:27:00,
2013-04-30 16:32:00,83.6,60.0,29.88,South,184,7.5,15.0,45,0.00,,SCT060,0.00,VWS V14.01,2013-04-30 21:32:00,
2013-04-30 16:37:00,83.7,60.7,29.88,SSE,157,1.5,15.0,46,0.00,,SCT060,0.00,VWS V14.01,2013-04-30 21:37:00,
2013-04-30 16:42:00,83.4,61.1,29.88,SSW,194,0.0,15.0,47,0.00,,SCT060,0.00,VWS V14.01,2013-04-30 21:42:00,
2013-04-30 16:47:00,83.0,59.5,29.87,South,169,7.5,15.0,45,0.00,,SCT060,0.00,VWS V14.01,2013-04-30 21:47:00,
2013-04-30 16:52:00,83.3,59.8,29.87,SSW,194,12.0,15.0,45,0.00,,SCT060,0.00,VWS V14.01,2013-04-30 21:52:00,
2013-04-30 16:57:00,83.2,59.7,29.87,South,175,7.5,15.0,45,0.00,,SCT060,0.00,VWS V14.01,2013-04-30 21:57:00,
2013-04-30 17:02:00,83.1,59.0,29.87,South,172,7.5,13.5,44,0.00,,SCT060,0.00,VWS V14.01,2013-04-30 22:02:00,
2013-04-30 17:07:00,82.9,58.8,29.88,SSE,165,10.5,21.0,44,0.00,,SCT060,0.00,VWS V14.01,2013-04-30 22:07:00,
2013-04-30 17:12:00,82.8,57.4,29.88,SE,141,6.0,21.0,42,0.00,,SCT060,0.00,VWS V14.01,2013-04-30 22:12:00,
2013-04-30 17:17:00,82.9,58.8,29.87,South,186,9.0,21.0,44,0.00,,SCT060,0.00,VWS V14.01,2013-04-30 22:17:00,
2013-04-30 17:22:00,83.0,59.5,29.88,South,169,9.0,21.0,45,0.00,,SCT060,0.00,VWS V14.01,2013-04-30 22:22:00,
2013-04-30 17:27:00,83.1,59.0,29.88,SSW,201,4.5,21.0,44,0.00,,SCT060,0.00,VWS V14.01,2013-04-30 22:27:00,
2013-04-30 17:33:00,83.0,58.2,29.88,SSE,161,7.5,15.0,43,0.00,,SCT060,0.00,VWS V14.01,2013-04-30 22:33:00,
2013-04-30 17:38:00,82.8,59.3,29.88,South,180,1.5,15.0,45,0.00,,SCT060,0.00,VWS V14.01,2013-04-30 22:38:00,
2013-04-30 17:43:00,82.8,58.7,29.88,South,169,7.5,15.0,44,0.00,,SCT060,0.00,VWS V14.01,2013-04-30 22:43:00,
2013-04-30 17:48:00,82.6,58.5,29.88,SSE,167,9.0,15.0,44,0.00,,SCT060,0.00,VWS V14.01,2013-04-30 22:48:00,
2013-04-30 17:53:00,82.8,59.3,29.87,South,175,6.0,15.0,45,0.00,,SCT060,0.00,VWS V14.01,2013-04-30 22:53:00,
2013-04-30 17:58:00,82.8,58.0,29.87,South,182,9.0,15.0,43,0.00,,SCT060,0.00,VWS V14.01,2013-04-30 22:58:00,
2013-04-30 18:03:00,82.7,59.2,29.87,South,174,6.0,15.0,45,0.00,,SCT075,0.00,VWS V14.01,2013-04-30 23:03:00,
2013-04-30 18:08:00,82.5,58.4,29.87,SSE,167,9.0,15.0,44,0.00,,SCT075,0.00,VWS V14.01,2013-04-30 23:08:00,
2013-04-30 18:13:00,82.3,58.9,29.87,SSE,168,6.0,15.0,45,0.00,,SCT075,0.00,VWS V14.01,2013-04-30 23:13:00,
2013-04-30 18:18:00,82.1,59.3,29.88,SSE,150,1.5,15.0,46,0.00,,SCT075,0.00,VWS V14.01,2013-04-30 23:18:00,
2013-04-30 18:23:00,81.9,59.1,29.88,South,171,3.0,15.0,46,0.00,,SCT075,0.00,VWS V14.01,2013-04-30 23:23:00,
2013-04-30 18:28:00,81.8,59.0,29.88,South,174,1.5,15.0,46,0.00,,SCT075,0.00,VWS V14.01,2013-04-30 23:28:00,
2013-04-30 18:33:00,81.5,59.3,29.88,SSE,167,6.0,7.5,47,0.00,,SCT075,0.00,VWS V14.01,2013-04-30 23:33:00,
2013-04-30 18:38:00,81.3,59.2,29.88,SSE,167,6.0,12.0,47,0.00,,SCT075,0.00,VWS V14.01,2013-04-30 23:38:00,
2013-04-30 18:43:00,81.1,59.6,29.88,SSE,163,9.0,12.0,48,0.00,,CLR,0.00,VWS V14.01,2013-04-30 23:43:00,
2013-04-30 18:48:00,80.9,60.0,29.89,SSE,167,3.0,12.0,49,0.00,,CLR,0.00,VWS V14.01,2013-04-30 23:48:00,
2013-04-30 18:53:00,80.7,59.2,29.88,South,174,1.5,12.0,48,0.00,,CLR,0.00,VWS V14.01,2013-04-30 23:53:00,
2013-04-30 18:58:00,80.5,59.6,29.89,SSE,166,3.0,12.0,49,0.00,,CLR,0.00,VWS V14.01,2013-04-30 23:58:00,
2013-04-30 19:03:00,80.3,59.4,29.89,SSE,167,0.0,6.0,49,0.00,,CLR,0.00,VWS V14.01,2013-05-01 00:03:00,
2013-04-30 19:08:00,80.1,59.2,29.89,SSE,167,0.0,6.0,49,0.00,,CLR,0.00,VWS V14.01,2013-05-01 00:08:00,
2013-04-30 19:13:00,79.9,59.0,29.89,SSE,167,0.0,7.5,49,0.00,,CLR,0.00,VWS V14.01,2013-05-01 00:13:00,
2013-04-30 19:18:00,79.7,58.9,29.89,SSE,167,6.0,7.5,49,0.00,,CLR,0.00,VWS V14.01,2013-05-01 00:18:00,
2013-04-30 19:23:00,79.4,58.6,29.89,SSE,167,0.0,7.5,49,0.00,,CLR,0.00,VWS V14.01,2013-05-01 00:23:00,
2013-04-30 19:28:00,79.2,59.0,29.89,SSE,167,0.0,7.5,50,0.00,,CLR,0.00,VWS V14.01,2013-05-01 00:28:00,
2013-04-30 19:33:00,79.0,59.3,29.89,SSE,167,0.0,1.5,51,0.00,,CLR,0.00,VWS V14.01,2013-05-01 00:33:00,
2013-04-30 19:38:00,78.7,59.1,29.90,SSE,167,0.0,1.5,51,0.00,,CLR,0.00,VWS V14.01,2013-05-01 00:38:00,
2013-04-30 19:43:00,78.4,58.8,29.89,SSE,167,0.0,1.5,51,0.00,,CLR,0.00,VWS V14.01,2013-05-01 00:43:00,
2013-04-30 19:48:00,78.1,59.1,29.90,SSE,167,0.0,1.5,52,0.00,,CLR,0.00,VWS V14.01,2013-05-01 00:48:00,
2013-04-30 19:53:00,77.8,59.3,29.90,SSE,167,0.0,1.5,53,0.00,,CLR,0.00,VWS V14.01,2013-05-01 00:53:00,
2013-04-30 19:58:00,77.6,58.6,29.90,SSE,167,0.0,1.5,52,0.00,,CLR,0.00,VWS V14.01,2013-05-01 00:58:00,
2013-04-30 20:03:00,77.3,58.8,29.90,SSE,167,0.0,0.0,53,0.00,,CLR,0.00,VWS V14.01,2013-05-01 01:03:00,
2013-04-30 20:08:00,76.9,58.5,29.90,SSE,167,0.0,0.0,53,0.00,,CLR,0.00,VWS V14.01,2013-05-01 01:08:00,
2013-04-30 20:13:00,76.6,60.2,29.90,SSE,167,0.0,0.0,57,0.00,,CLR,0.00,VWS V14.01,2013-05-01 01:13:00,
2013-04-30 20:18:00,76.2,59.9,29.91,SSE,167,0.0,0.0,57,0.00,,CLR,0.00,VWS V14.01,2013-05-01 01:18:00,
2013-04-30 20:23:00,75.6,60.3,29.91,SSE,167,0.0,0.0,59,0.00,,CLR,0.00,VWS V14.01,2013-05-01 01:23:00,
2013-04-30 20:28:00,75.1,60.3,29.91,SSE,167,0.0,0.0,60,0.00,,CLR,0.00,VWS V14.01,2013-05-01 01:28:00,
2013-04-30 20:33:00,74.5,60.2,29.91,SSE,167,0.0,0.0,61,0.00,,CLR,0.00,VWS V14.01,2013-05-01 01:33:00,
2013-04-30 20:39:00,74.0,60.2,29.92,SSE,167,0.0,0.0,62,0.00,,CLR,0.00,VWS V14.01,2013-05-01 01:39:00,
2013-04-30 20:44:00,73.5,60.2,29.92,SSE,167,0.0,0.0,63,0.00,,CLR,0.00,VWS V14.01,2013-05-01 01:44:00,
2013-04-30 20:49:00,73.1,60.2,29.92,SSE,167,0.0,0.0,64,0.00,,CLR,0.00,VWS V14.01,2013-05-01 01:49:00,
2013-04-30 20:54:00,72.6,60.2,29.92,SSE,167,0.0,0.0,65,0.00,,CLR,0.00,VWS V14.01,2013-05-01 01:54:00,
2013-04-30 20:59:00,72.2,59.8,29.92,SSE,167,0.0,0.0,65,0.00,,CLR,0.00,VWS V14.01,2013-05-01 01:59:00,
2013-04-30 21:04:00,71.8,59.8,29.92,SSE,167,0.0,0.0,66,0.00,,CLR,0.00,VWS V14.01,2013-05-01 02:04:00,
2013-04-30 21:09:00,71.4,59.9,29.93,SSE,167,0.0,0.0,67,0.00,,CLR,0.00,VWS V14.01,2013-05-01 02:09:00,
2013-04-30 21:14:00,70.9,60.2,29.93,SSE,167,0.0,0.0,69,0.00,,CLR,0.00,VWS V14.01,2013-05-01 02:14:00,
2013-04-30 21:19:00,70.1,59.9,29.93,SSE,167,0.0,0.0,70,0.00,,CLR,0.00,VWS V14.01,2013-05-01 02:19:00,
2013-04-30 21:24:00,69.5,59.7,29.93,SSE,167,0.0,0.0,71,0.00,,CLR,0.00,VWS V14.01,2013-05-01 02:24:00,
2013-04-30 21:29:00,69.2,59.4,29.93,SSE,167,0.0,0.0,71,0.00,,CLR,0.00,VWS V14.01,2013-05-01 02:29:00,
2013-04-30 21:34:00,68.9,59.1,29.94,SSE,167,0.0,0.0,71,0.00,,CLR,0.00,VWS V14.01,2013-05-01 02:34:00,
2013-04-30 21:39:00,68.7,59.3,29.94,SSE,167,0.0,0.0,72,0.00,,CLR,0.00,VWS V14.01,2013-05-01 02:39:00,
2013-04-30 21:44:00,68.3,59.3,29.94,SSE,167,0.0,0.0,73,0.00,,CLR,0.00,VWS V14.01,2013-05-01 02:44:00,
2013-04-30 21:49:00,67.9,59.7,29.94,SSE,167,0.0,0.0,75,0.00,,CLR,0.00,VWS V14.01,2013-05-01 02:49:00,
2013-04-30 21:54:00,67.5,59.3,29.94,SSE,167,0.0,1.5,75,0.00,,CLR,0.00,VWS V14.01,2013-05-01 02:54:00,
2013-04-30 21:59:00,67.3,59.1,29.94,SSE,167,0.0,1.5,75,0.00,,CLR,0.00,VWS V14.01,2013-05-01 02:59:00,
2013-04-30 22:04:00,67.0,58.8,29.94,SSE,167,0.0,0.0,75,0.00,,CLR,0.00,VWS V14.01,2013-05-01 03:04:00,
2013-04-30 22:09:00,66.7,58.9,29.94,SSE,167,0.0,0.0,76,0.00,,CLR,0.00,VWS V14.01,2013-05-01 03:09:00,
2013-04-30 22:14:00,66.5,59.1,29.94,SSE,167,0.0,0.0,77,0.00,,CLR,0.00,VWS V14.01,2013-05-01 03:14:00,
2013-04-30 22:19:00,66.2,58.8,29.94,SSE,167,0.0,0.0,77,0.00,,CLR,0.00,VWS V14.01,2013-05-01 03:19:00,
2013-04-30 22:24:00,66.1,59.0,29.94,SSE,167,0.0,0.0,78,0.00,,CLR,0.00,VWS V14.01,2013-05-01 03:24:00,
2013-04-30 22:29:00,65.9,58.9,29.94,SSE,167,0.0,0.0,78,0.00,,CLR,0.00,VWS V14.01,2013-05-01 03:29:00,
2013-04-30 22:34:00,65.6,58.6,29.94,SSE,167,0.0,0.0,78,0.00,,CLR,0.00,VWS V14.01,2013-05-01 03:34:00,
2013-04-30 22:39:00,65.4,58.0,29.94,SSE,167,0.0,0.0,77,0.00,,CLR,0.00,VWS V14.01,2013-05-01 03:39:00,
2013-04-30 22:44:00,65.1,58.4,29.94,SSE,167,0.0,0.0,79,0.00,,CLR,0.00,VWS V14.01,2013-05-01 03:44:00,
2013-04-30 22:49:00,64.9,58.6,29.94,SSE,167,0.0,0.0,80,0.00,,CLR,0.00,VWS V14.01,2013-05-01 03:49:00,
2013-04-30 22:54:00,64.7,58.4,29.94,SSE,167,0.0,0.0,80,0.00,,CLR,0.00,VWS V14.01,2013-05-01 03:54:00,
2013-04-30 22:59:00,64.6,58.3,29.94,SSE,167,0.0,0.0,80,0.00,,CLR,0.00,VWS V14.01,2013-05-01 03:59:00,
2013-04-30 23:01:00,64.5,58.2,29.94,SSE,167,0.0,0.0,80,0.00,,CLR,0.00,VWS V14.01,2013-05-01 04:01:00,
2013-04-30 23:06:00,64.3,58.0,29.94,SSE,167,0.0,0.0,80,0.00,,CLR,0.00,VWS V14.01,2013-05-01 04:06:00,
2013-04-30 23:11:00,64.1,57.8,29.94,SSE,167,0.0,0.0,80,0.00,,CLR,0.00,VWS V14.01,2013-05-01 04:11:00,
2013-04-30 23:17:00,64.0,57.7,29.94,SSE,167,0.0,1.5,80,0.00,,CLR,0.00,VWS V14.01,2013-05-01 04:17:00,
2013-04-30 23:22:00,63.8,57.5,29.95,SSE,167,0.0,1.5,80,0.00,,CLR,0.00,VWS V14.01,2013-05-01 04:22:00,
2013-04-30 23:27:00,63.8,57.9,29.94,SSE,167,0.0,1.5,81,0.00,,CLR,0.00,VWS V14.01,2013-05-01 04:27:00,
2013-04-30 23:32:00,63.7,57.4,29.94,SSE,167,0.0,0.0,80,0.00,,CLR,0.00,VWS V14.01,2013-05-01 04:32:00,
2013-04-30 23:37:00,63.6,57.3,29.94,SSE,167,0.0,0.0,80,0.00,,CLR,0.00,VWS V14.01,2013-05-01 04:37:00,
2013-04-30 23:42:00,63.5,56.5,29.94,SSE,167,0.0,0.0,78,0.00,,CLR,0.00,VWS V14.01,2013-05-01 04:42:00,
2013-04-30 23:47:00,63.6,57.0,29.94,SSE,167,0.0,1.5,79,0.00,,CLR,0.00,VWS V14.01,2013-05-01 04:47:00,
2013-04-30 23:52:00,63.5,56.9,29.94,SSE,167,0.0,1.5,79,0.00,,CLR,0.00,VWS V14.01,2013-05-01 04:52:00,
2013-04-30 23:57:00,63.5,56.5,29.94,SSE,167,0.0,1.5,78,0.00,,CLR,0.00,VWS V14.01,2013-05-01 04:57:00,